This is the latest recevied weather packets stored in our database for station/object SP6PWT-13. If no packets are shown the sender has not sent any weather packets the latest 10 day(s).
| Time | Temp. | Humidity | Pressure | Rain* | Wind** | Luminosity | Snow |
|---|---|---|---|---|---|---|---|
| 1777826325 | 25.56° C | 25% | 996.7 hPa | 0 mm | - | 84 W/m² | - |
| 1777826025 | 25.56° C | 25% | 996.8 hPa | 0 mm | - | 90 W/m² | - |
| 1777825724 | 26.11° C | 25% | 996.8 hPa | 0 mm | - | 104 W/m² | - |
| 1777825424 | 26.11° C | 25% | 996.9 hPa | 0 mm | - | 113 W/m² | - |
| 1777825124 | 26.11° C | 24% | 996.8 hPa | 0 mm | - | 123 W/m² | - |
| 1777824824 | 26.11° C | 25% | 996.7 hPa | 0 mm | - | 134 W/m² | - |
| 1777824523 | 26.11° C | 25% | 996.8 hPa | 0 mm | - | 144 W/m² | - |
| 1777824223 | 26.11° C | 24% | 996.8 hPa | 0 mm | - | 153 W/m² | - |
| 1777823922 | 26.11° C | 25% | 996.8 hPa | 0 mm | - | 162 W/m² | - |
| 1777823621 | 26.11° C | 25% | 996.9 hPa | 0 mm | - | 164 W/m² | - |
| 1777823321 | 26.11° C | 25% | 996.9 hPa | 0 mm | - | 185 W/m² | - |
| 1777823021 | 26.11° C | 25% | 996.9 hPa | 0 mm | - | 190 W/m² | - |
| 1777822720 | 26.11° C | 25% | 997 hPa | 0 mm | - | 199 W/m² | - |
| 1777822420 | 26.11° C | 25% | 997 hPa | 0 mm | - | 200 W/m² | - |
| 1777822119 | 26.11° C | 25% | 997.1 hPa | 0 mm | - | 231 W/m² | - |
| 1777821819 | 26.11° C | 25% | 997 hPa | 0 mm | - | 243 W/m² | - |
| 1777821519 | 26.11° C | 25% | 997.2 hPa | 0 mm | - | 259 W/m² | - |
| 1777821219 | 26.11° C | 25% | 997.1 hPa | 0 mm | - | 274 W/m² | - |
| 1777820918 | 26.11° C | 26% | 997 hPa | 0 mm | - | 282 W/m² | - |
| 1777820617 | 26.67° C | 26% | 997.2 hPa | 0 mm | - | 296 W/m² | - |
| 1777820317 | 26.11° C | 28% | 997.2 hPa | 0 mm | - | 309 W/m² | - |
| 1777820016 | 26.11° C | 27% | 997.3 hPa | 0 mm | - | 322 W/m² | - |
| 1777819716 | 26.11° C | 27% | 997.3 hPa | 0 mm | - | 331 W/m² | - |
| 1777819415 | 26.11° C | 26% | 997.5 hPa | 0 mm | - | 337 W/m² | - |
| 1777819114 | 26.11° C | 27% | 997.6 hPa | 0 mm | - | 351 W/m² | - |
* Rain latest hour (hover to see other rain measurements)
** Current wind speed in m/s (hover to see current wind gust speed)